SCP
0 0 0 0 0 0 0 0 0 0 0 0 0 0 0 0 0 0 0 0 0 0 0 0 0 0 0 0 0 0 0 0 0 0 0 0 0 0 0 0 0 0 0 0
0 0 0 0 0 0 0 0 0 0 0 0 0 0 0 0 0 0 0 0 0 0 0 0 0 0 0 0 0 0 0 0 0 0 0 0 0 0 0 0 0 0 0 0
0 0 0 0 0 0 0 0 0 0 0 0 0 0 0 0 0 0 0 0 0 0 0 0 0 0 0 0 0 0 0 0 0 -0 0 0 0 0 0 0 0 0 0 0
0 0 0 0 0 0 0 0 0 0 0 0 0 0 0 0 0 0 0 0 0 0 0 0 0 0 0 0 0 0 0 0 0 0 0 0 0 0 0 0 0 0 0 0
0 0 0 0 0 0 0 0 0 0 0 0 0 0 0 0 0 0 0 0 0 0 0 0 0 0 0 0 0 0 0 0 0 0 -0 -0 0 0 0 0 0 0 0 0
0 0 0 0 0 0 0 0 0 0 0 0 0 0 0 0 0 0 0 0 0 0 0 0 0 0 0 0 0 0 0 0 0 0 0 -0 0 -0 -0 0 0 0 0 0
0 0 0 0 0 0 0 0 0 0 0 0 0 0 0 0 0 0 0 0 0 0 0 0 0 0 0 0 0 0 0 0 0 0 0 0 0 0 0 0 0 -0 -0 -0
0 0 0 0 0 0 0 0 0 0 0 0 0 0 0 0 0 0 0 0 0 0 0 0 0 0 0 0 0 0 0 0 0 0 0 0 0 0 0 0 0 0 0 0
0 0 0 0 0 0 0 0 0 0 0 0 0 0 0 0 0 0 0 0 0 0 0 0 0 0 0 0 0 0 0 0 0 0 0 0 0 0 0 0 0 0 0 0
0 0 0 0 0 0 0 0 0 0 0 0 0 0 0 0 0 0 0 0 0 0 0 0 0 0 0 0 0 0 0 0 0 0 0 0 0 0 0 0 0 0 0 0
0 0 0 0 0 0 0 0 0 0 0 0 0 0 0 0 0 0 0 -0 -0 0 0 0 0 0 0 0 0 0 0 0 0 0 0 0 0 0 0 0 0 0 0 0
0 0 0 0 0 0 0 0 0 0 0 0 0 0 -0 -0 -0 0 0 0 0 0 -0 0 0 0 0 0 0 0 0 0 0 0 0 0 0 0 0 0 0 0 0 0
0 0 0 0 -0 0 0 0 0 0 0 0 0 0 0 -0 -0 -0 0 0 0 0 0 0 0 0 0 0 0 0 0 0 0 0 0 0 0 0 0 0 0 0 0 0
0 0 0 0 0 0 0 0 0 0 0 0 0 0 -0 -0 -0 -0 -0 -0 0 0 0 0 0 0 0 0 0 0 0 0 0 0 0 0 0 0 0 0 0 0 0 0
0 0 0 0 0 0 0 0 0 0 0 0 -0 -0 0 0 -0 -0 -0 -0 0 0 0 0 0 0 0 0 0 0 0 0 0 0 0 0 0 0 0 0 0 0 0 0
0 0 0 0 0 0 0 0 0 0 0 0 -0 -0 -0 -0 -0 -0 -0 -0 0 0 0 0 0 0 0 0 0 0 0 0 0 0 0 0 -0 0 0 0 0 0 0 0
0 0 0 0 0 0 0 0 0 0 0 0 -0 -0 0 0 -0 0 0 0 0 0 0 0 0 0 0 0 0 0 0 -0 -0 0 0 0 0 0 0 0 -0 0 0 -0
0 0 0 -0 0 0 0 0 0 0 0 0 0 -0 -0 0 -0 -0 0 0 0 0 0 0 0 0 0 0 0 0 0 0 0 0 0 0 0 0 0 0 0 -0 -0 0
0 0 0 0 0 0 0 0 0 0 0 0 0 -0 0 0 -0 -0 -0 -0 0 0 0 0 0 0 0 0 0 0 -0 0 0 0 0 -0 0 0 0 0 0 0 0 0
0 0 0 0 0 -0 0 0 0 -0 0 0 0 0 -0 0 0 0 0 0 0 0 0 0 0 0 0 0 0 0 0 0 0 0 0 0 0 0 0 -0 0 0 -0 0
0 0 0 0 -0 0 0 -0 -0 0 0 -0 -0 0 0 0 0 0 0 0 0 0 0 0 0 0 0 0 0 0 0 0 0 0 0 0 0 -0 -0 -0 -0 -0 -0 0
0 0 0 0 0 0 -0 -0 0 0 0 0 0 0 0 0 0 0 0 0 0 0 0 0 0 0 0 0 0 0 0 0 0 0 0 0 0 0 0 0 0 0 -0 0
0 0 0 0 0 0 0 0 0 0 0 -0 0 0 0 0 0 0 0 0 -0 0 0 0 0 0 0 0 0 0 0 0 0 0 0 0 0 0 0 0 0 0 -0 -0
0 0 0 0 0 -0 -0 0 0 0 0 0 0 0 0 0 0 0 0 -0 0 0 0 0 0 0 0 0 0 0 0 0 0 0 0 0 0 0 0 0 0 0 0 0
0 0 0 0 -0 0 0 0 0 0 0 0 0 0 0 0 0 0 0 -0 -0 -0 -0 0 0 0 0 0 0 0 0 0 0 0 0 0 0 0 -0 -0 0 0 0 0
0 0 0 0 0 0 0 0 0 0 0 0 0 0 0 0 0 0 0 0 0 -0 0 0 0 0 0 0 0 0 0 0 0 -0 0 0 0 0 0 0 -0 -0 0 0
0 0 0 0 0 0 0 0 0 0 0 0 0 0 0 0 0 0 0 0 -0 -0 0 -0 -0 0 0 0 0 0 0 0 0 0 0 0 0 0 0 0 0 0 0 0
Wind_Speed_500mb
59 59 58 59 64 65 64 34 8 47 39 19 9 5 11 14 10 11 9 6 5 2 6 7 2 3 4 12 7 4 6 5 4 5 16 28 17 9 6 2 5 2 4 7
56 56 55 52 53 57 57 33 15 27 33 8 7 13 9 6 5 6 3 3 2 3 1 6 3 4 6 14 5 2 4 4 5 11 6 5 10 8 6 3 2 8 9 8
54 52 53 49 47 45 40 17 9 14 27 15 6 8 8 11 9 5 6 5 9 4 2 3 6 3 2 6 5 8 7 3 8 10 5 3 9 19 9 4 2 11 13 12
53 48 48 48 45 40 28 17 4 6 8 8 5 2 7 7 11 13 14 5 4 3 4 5 6 4 7 6 6 7 7 7 7 9 11 12 16 23 14 16 13 13 8 23
50 46 44 45 43 37 16 10 10 8 6 12 8 5 3 7 8 6 5 7 15 8 8 9 8 2 4 11 4 4 4 5 6 8 20 19 24 24 25 23 21 35 30 46
45 42 41 40 41 34 13 11 8 7 6 6 4 3 3 4 10 11 5 10 6 6 5 20 24 26 24 23 13 11 9 9 4 6 5 8 16 35 29 11 12 14 19 27
41 38 37 34 31 28 16 12 10 5 6 2 6 15 27 20 10 7 29 36 8 5 22 25 22 26 35 33 28 26 12 11 7 5 3 9 13 7 11 20 19 20 27 24
38 36 33 32 26 17 15 10 8 4 6 5 25 9 8 20 30 21 21 31 10 16 14 5 11 8 9 7 10 11 19 10 4 5 7 15 10 10 11 14 21 34 32 33
37 34 32 30 27 15 18 10 10 11 10 6 10 8 23 16 11 10 8 14 33 8 4 4 7 6 4 8 11 12 10 6 8 5 8 14 11 8 28 11 32 17 28 23
34 31 28 22 22 21 18 18 12 14 14 21 14 10 6 7 5 5 10 13 9 2 4 3 5 7 5 5 7 8 4 3 11 9 9 17 14 13 24 14 13 8 2 22
32 28 17 14 24 19 18 24 21 26 17 37 47 35 35 30 22 7 6 13 3 4 2 6 6 6 7 4 8 7 11 8 8 5 7 26 35 14 18 12 9 6 13 17
28 22 13 14 18 18 21 31 18 26 37 37 66 73 69 66 59 33 17 13 3 6 4 2 1 5 3 7 9 10 10 18 8 18 14 15 19 19 34 32 46 43 41 45
24 21 19 15 17 18 23 28 24 36 23 51 30 29 22 25 26 38 27 18 25 20 27 5 7 8 7 7 12 12 11 27 14 12 28 47 75 74 67 58 66 70 66 62
27 25 15 21 25 24 22 27 27 28 21 12 16 23 54 41 29 33 46 59 30 29 30 20 8 8 19 7 13 16 24 9 22 34 45 57 67 73 68 71 60 54 51 55
22 21 22 21 23 20 24 29 32 30 20 9 29 57 4 10 12 27 39 50 57 42 13 9 7 10 9 11 11 26 32 30 16 26 49 44 43 58 53 52 53 50 47 47
29 24 21 26 27 22 23 9 6 5 20 10 9 19 16 12 14 24 35 47 49 34 13 12 16 35 12 7 7 10 6 23 43 52 65 62 69 74 61 50 50 58 60 57
29 25 24 22 22 19 16 9 9 16 17 10 13 17 10 22 13 6 4 22 28 29 13 15 16 16 22 5 11 30 50 72 74 72 65 48 55 45 30 32 38 39 33 42
33 27 27 23 23 26 29 24 21 21 24 7 6 8 17 16 10 6 5 8 15 20 12 8 5 7 7 5 20 54 68 73 66 61 68 56 56 36 42 46 52 47 46 47
21 26 21 22 20 9 8 7 4 8 9 5 6 6 7 18 7 8 5 4 4 4 4 4 4 3 5 16 45 60 73 53 58 53 33 27 17 23 23 26 35 43 54 50
5 8 6 5 3 5 4 2 4 7 6 11 9 9 7 11 9 7 9 5 3 4 2 7 3 5 23 36 53 48 54 60 60 40 40 31 21 15 18 26 26 17 11 8
5 7 5 12 10 3 4 6 8 10 6 10 12 17 10 9 4 4 5 4 3 4 5 5 4 5 20 49 51 56 56 54 51 46 42 38 34 30 22 25 18 14 17 22
10 5 5 2 5 5 2 4 5 7 7 9 10 10 18 9 9 3 4 3 4 6 8 3 6 4 44 48 47 52 54 54 54 46 42 44 41 37 35 36 24 26 26 10
8 6 1 4 5 3 8 9 6 3 8 8 4 5 6 5 6 4 2 4 7 16 2 3 4 21 40 49 48 44 48 49 47 50 49 46 46 41 42 40 34 15 8 23
7 7 5 7 7 8 9 8 6 6 11 18 21 12 6 7 3 3 4 4 4 6 5 5 4 34 51 41 49 45 41 44 46 46 46 46 43 51 46 47 38 30 22 10
6 5 7 10 15 14 12 17 21 23 27 27 11 11 7 4 3 4 4 5 4 4 6 5 27 41 42 45 32 37 34 40 46 46 44 41 44 41 42 51 47 41 30 17
5 9 8 12 5 10 11 20 30 31 25 12 7 3 3 5 3 3 3 2 7 6 5 30 42 43 33 26 21 11 21 29 32 36 43 48 45 34 35 35 45 48 47 42
7 11 20 31 34 28 35 28 22 20 8 2 2 2 2 1 3 4 5 6 3 16 30 34 39 36 33 29 25 7 12 20 23 28 30 36 39 37 30 31 35 40 41 48
Wind_Direction_500mb
347 348 351 354 351 355 2 354 11 350 6 47 35 54 318 330 347 22 40 81 69 76 358 322 21 88 83 352 348 43 21 142 292 258 88 57 65 48 48 65 207 226 177 244
345 344 346 355 358 357 356 341 320 353 19 67 5 320 313 349 4 9 55 92 82 46 358 322 29 26 186 56 105 133 309 353 6 351 347 39 50 47 35 232 12 237 165 216
342 342 343 352 358 360 355 350 356 5 53 72 90 5 304 328 359 36 12 81 58 70 283 289 295 268 314 314 203 77 99 140 168 194 230 174 290 316 351 107 229 334 258 320
338 339 341 346 356 1 4 10 45 13 330 2 358 266 334 339 357 351 21 60 73 196 259 284 278 278 310 286 242 109 116 208 206 238 270 279 268 284 271 235 219 224 267 308
335 337 340 341 350 3 6 15 359 348 305 304 340 5 28 33 339 305 344 53 314 261 228 222 258 241 236 246 333 110 19 245 189 262 237 242 267 259 253 256 247 254 264 272
331 332 335 340 343 3 22 7 338 330 344 348 6 249 81 0 350 282 46 347 312 239 216 294 274 269 252 244 203 196 169 167 127 268 193 236 274 250 231 223 216 228 244 265
324 326 329 335 340 348 10 348 334 355 290 323 280 308 305 293 259 258 290 303 256 276 319 299 280 265 258 252 250 203 170 154 159 230 168 236 238 168 180 213 245 247 249 252
321 321 323 327 332 332 345 336 330 275 274 309 295 311 340 322 313 283 260 266 240 327 312 334 325 326 340 285 235 197 188 141 190 180 212 285 280 212 192 183 252 236 237 247
318 316 318 321 319 322 305 322 278 261 304 226 255 309 296 285 293 319 291 307 311 281 103 103 195 234 271 306 318 58 105 107 141 156 183 239 228 208 209 95 262 278 240 252
311 314 318 328 337 334 291 282 278 262 260 278 263 232 292 282 261 257 301 317 349 317 77 117 169 243 216 242 228 215 145 141 194 210 239 276 240 229 151 184 255 357 295 260
303 304 306 346 338 328 310 305 275 271 269 280 275 269 254 258 249 249 321 328 311 41 88 174 218 203 240 274 242 205 191 197 214 204 193 272 216 149 191 214 225 217 312 337
298 293 294 337 325 314 293 307 298 285 274 269 282 284 277 262 251 250 224 231 227 247 88 272 26 262 278 195 269 203 255 204 204 199 213 240 209 230 226 233 262 247 267 281
305 303 295 310 297 306 297 302 301 300 290 302 283 285 297 275 256 231 230 228 233 241 252 188 238 228 174 236 232 235 244 241 241 290 242 254 262 265 262 261 265 270 266 274
295 287 272 279 294 287 293 294 301 303 296 279 285 291 304 294 256 241 237 235 228 242 253 225 235 241 208 237 254 246 246 222 242 255 264 270 264 262 265 270 275 275 273 270
282 284 288 287 299 279 304 299 293 285 240 279 297 306 11 338 270 246 240 235 235 240 241 226 244 242 257 235 249 263 253 255 254 266 279 279 272 268 274 278 272 269 274 272
272 282 277 280 299 285 312 300 267 194 7 293 301 310 299 344 298 265 244 239 230 219 216 228 238 243 208 256 255 278 337 308 302 280 279 272 270 275 267 267 270 274 272 262
270 272 273 281 295 281 270 264 290 296 318 321 299 299 292 332 340 327 256 217 211 211 226 232 246 257 207 249 272 318 311 314 309 302 292 280 266 256 271 235 258 286 272 259
259 264 269 277 288 284 287 278 249 258 273 242 280 276 316 355 331 329 359 168 203 219 236 245 260 275 237 274 283 306 309 311 311 310 306 294 271 255 253 264 273 274 274 274
264 261 262 280 280 254 164 160 222 237 228 235 238 283 279 338 307 303 314 345 253 271 265 262 306 309 261 274 311 311 317 317 309 326 340 349 281 272 259 255 262 269 275 269
247 222 224 224 222 212 352 322 213 224 222 226 243 242 269 324 333 314 335 347 301 293 299 288 239 262 275 319 331 341 352 1 10 4 7 356 347 301 273 262 272 261 271 210
203 184 220 227 165 230 211 219 213 202 234 221 239 237 248 275 234 279 349 324 297 292 310 335 283 330 333 341 349 358 5 13 15 24 25 21 13 8 354 324 294 255 230 234
198 189 283 297 189 184 253 238 268 228 240 215 202 242 231 251 220 262 317 299 341 252 325 271 308 283 338 347 353 5 14 19 22 27 30 29 30 25 27 18 352 248 233 197
164 186 246 207 193 62 195 207 246 251 213 221 222 289 267 209 223 239 265 273 243 311 358 324 262 303 338 359 353 1 20 22 23 31 32 33 31 35 32 31 37 51 169 199
193 163 244 225 198 236 203 203 209 254 259 283 291 272 238 196 185 203 257 261 276 355 15 267 279 339 346 356 11 10 17 25 25 27 30 29 34 43 40 41 37 40 54 148
198 202 244 226 235 254 261 252 274 286 291 292 277 238 217 197 231 208 282 339 298 242 244 265 319 330 335 333 357 13 23 26 25 28 29 27 28 35 40 42 43 48 52 74
234 236 261 254 287 274 260 269 279 313 299 287 222 255 216 210 221 194 227 115 235 257 242 306 320 327 343 335 346 0 8 13 20 32 34 33 30 32 37 46 50 52 67 88
237 251 253 260 275 268 271 280 288 315 276 238 201 245 222 283 229 228 164 219 242 297 315 319 323 331 342 350 341 329 9 6 12 14 20 25 32 34 46 52 61 64 74 88
Wind_Speed_850mb
59 59 58 59 64 65 64 34 8 47 39 19 9 5 11 14 10 11 9 6 5 2 6 7 2 3 4 12 7 4 6 5 4 5 16 28 17 9 6 2 5 2 4 7
56 56 55 52 53 57 57 33 15 27 33 8 7 13 9 6 5 6 3 3 2 3 1 6 3 4 6 14 5 2 4 4 5 11 6 5 10 8 6 3 2 8 9 8
54 52 53 49 47 45 40 17 9 14 27 15 6 8 8 11 9 5 6 5 9 4 2 3 6 3 2 6 5 8 7 3 8 10 5 3 9 19 9 4 2 11 13 12
53 48 48 48 45 40 28 17 4 6 8 8 5 2 7 7 11 13 14 5 4 3 4 5 6 4 7 6 6 7 7 7 7 9 11 12 16 23 14 16 13 13 8 23
50 46 44 45 43 37 16 10 10 8 6 12 8 5 3 7 8 6 5 7 15 8 8 9 8 2 4 11 4 4 4 5 6 8 20 19 24 24 25 23 21 35 30 46
45 42 41 40 41 34 13 11 8 7 6 6 4 3 3 4 10 11 5 10 6 6 5 20 24 26 24 23 13 11 9 9 4 6 5 8 16 35 29 11 12 14 19 27
41 38 37 34 31 28 16 12 10 5 6 2 6 15 27 20 10 7 29 36 8 5 22 25 22 26 35 33 28 26 12 11 7 5 3 9 13 7 11 20 19 20 27 24
38 36 33 32 26 17 15 10 8 4 6 5 25 9 8 20 30 21 21 31 10 16 14 5 11 8 9 7 10 11 19 10 4 5 7 15 10 10 11 14 21 34 32 33
37 34 32 30 27 15 18 10 10 11 10 6 10 8 23 16 11 10 8 14 33 8 4 4 7 6 4 8 11 12 10 6 8 5 8 14 11 8 28 11 32 17 28 23
34 31 28 22 22 21 18 18 12 14 14 21 14 10 6 7 5 5 10 13 9 2 4 3 5 7 5 5 7 8 4 3 11 9 9 17 14 13 24 14 13 8 2 22
32 28 17 14 24 19 18 24 21 26 17 37 47 35 35 30 22 7 6 13 3 4 2 6 6 6 7 4 8 7 11 8 8 5 7 26 35 14 18 12 9 6 13 17
28 22 13 14 18 18 21 31 18 26 37 37 66 73 69 66 59 33 17 13 3 6 4 2 1 5 3 7 9 10 10 18 8 18 14 15 19 19 34 32 46 43 41 45
24 21 19 15 17 18 23 28 24 36 23 51 30 29 22 25 26 38 27 18 25 20 27 5 7 8 7 7 12 12 11 27 14 12 28 47 75 74 67 58 66 70 66 62
27 25 15 21 25 24 22 27 27 28 21 12 16 23 54 41 29 33 46 59 30 29 30 20 8 8 19 7 13 16 24 9 22 34 45 57 67 73 68 71 60 54 51 55
22 21 22 21 23 20 24 29 32 30 20 9 29 57 4 10 12 27 39 50 57 42 13 9 7 10 9 11 11 26 32 30 16 26 49 44 43 58 53 52 53 50 47 47
29 24 21 26 27 22 23 9 6 5 20 10 9 19 16 12 14 24 35 47 49 34 13 12 16 35 12 7 7 10 6 23 43 52 65 62 69 74 61 50 50 58 60 57
29 25 24 22 22 19 16 9 9 16 17 10 13 17 10 22 13 6 4 22 28 29 13 15 16 16 22 5 11 30 50 72 74 72 65 48 55 45 30 32 38 39 33 42
33 27 27 23 23 26 29 24 21 21 24 7 6 8 17 16 10 6 5 8 15 20 12 8 5 7 7 5 20 54 68 73 66 61 68 56 56 36 42 46 52 47 46 47
21 26 21 22 20 9 8 7 4 8 9 5 6 6 7 18 7 8 5 4 4 4 4 4 4 3 5 16 45 60 73 53 58 53 33 27 17 23 23 26 35 43 54 50
5 8 6 5 3 5 4 2 4 7 6 11 9 9 7 11 9 7 9 5 3 4 2 7 3 5 23 36 53 48 54 60 60 40 40 31 21 15 18 26 26 17 11 8
5 7 5 12 10 3 4 6 8 10 6 10 12 17 10 9 4 4 5 4 3 4 5 5 4 5 20 49 51 56 56 54 51 46 42 38 34 30 22 25 18 14 17 22
10 5 5 2 5 5 2 4 5 7 7 9 10 10 18 9 9 3 4 3 4 6 8 3 6 4 44 48 47 52 54 54 54 46 42 44 41 37 35 36 24 26 26 10
8 6 1 4 5 3 8 9 6 3 8 8 4 5 6 5 6 4 2 4 7 16 2 3 4 21 40 49 48 44 48 49 47 50 49 46 46 41 42 40 34 15 8 23
7 7 5 7 7 8 9 8 6 6 11 18 21 12 6 7 3 3 4 4 4 6 5 5 4 34 51 41 49 45 41 44 46 46 46 46 43 51 46 47 38 30 22 10
6 5 7 10 15 14 12 17 21 23 27 27 11 11 7 4 3 4 4 5 4 4 6 5 27 41 42 45 32 37 34 40 46 46 44 41 44 41 42 51 47 41 30 17
5 9 8 12 5 10 11 20 30 31 25 12 7 3 3 5 3 3 3 2 7 6 5 30 42 43 33 26 21 11 21 29 32 36 43 48 45 34 35 35 45 48 47 42
7 11 20 31 34 28 35 28 22 20 8 2 2 2 2 1 3 4 5 6 3 16 30 34 39 36 33 29 25 7 12 20 23 28 30 36 39 37 30 31 35 40 41 48
Wind_Direction_850mb
347 348 351 354 351 355 2 354 11 350 6 47 35 54 318 330 347 22 40 81 69 76 358 322 21 88 83 352 348 43 21 142 292 258 88 57 65 48 48 65 207 226 177 244
345 344 346 355 358 357 356 341 320 353 19 67 5 320 313 349 4 9 55 92 82 46 358 322 29 26 186 56 105 133 309 353 6 351 347 39 50 47 35 232 12 237 165 216
342 342 343 352 358 360 355 350 356 5 53 72 90 5 304 328 359 36 12 81 58 70 283 289 295 268 314 314 203 77 99 140 168 194 230 174 290 316 351 107 229 334 258 320
338 339 341 346 356 1 4 10 45 13 330 2 358 266 334 339 357 351 21 60 73 196 259 284 278 278 310 286 242 109 116 208 206 238 270 279 268 284 271 235 219 224 267 308
335 337 340 341 350 3 6 15 359 348 305 304 340 5 28 33 339 305 344 53 314 261 228 222 258 241 236 246 333 110 19 245 189 262 237 242 267 259 253 256 247 254 264 272
331 332 335 340 343 3 22 7 338 330 344 348 6 249 81 0 350 282 46 347 312 239 216 294 274 269 252 244 203 196 169 167 127 268 193 236 274 250 231 223 216 228 244 265
324 326 329 335 340 348 10 348 334 355 290 323 280 308 305 293 259 258 290 303 256 276 319 299 280 265 258 252 250 203 170 154 159 230 168 236 238 168 180 213 245 247 249 252
321 321 323 327 332 332 345 336 330 275 274 309 295 311 340 322 313 283 260 266 240 327 312 334 325 326 340 285 235 197 188 141 190 180 212 285 280 212 192 183 252 236 237 247
318 316 318 321 319 322 305 322 278 261 304 226 255 309 296 285 293 319 291 307 311 281 103 103 195 234 271 306 318 58 105 107 141 156 183 239 228 208 209 95 262 278 240 252
311 314 318 328 337 334 291 282 278 262 260 278 263 232 292 282 261 257 301 317 349 317 77 117 169 243 216 242 228 215 145 141 194 210 239 276 240 229 151 184 255 357 295 260
303 304 306 346 338 328 310 305 275 271 269 280 275 269 254 258 249 249 321 328 311 41 88 174 218 203 240 274 242 205 191 197 214 204 193 272 216 149 191 214 225 217 312 337
298 293 294 337 325 314 293 307 298 285 274 269 282 284 277 262 251 250 224 231 227 247 88 272 26 262 278 195 269 203 255 204 204 199 213 240 209 230 226 233 262 247 267 281
305 303 295 310 297 306 297 302 301 300 290 302 283 285 297 275 256 231 230 228 233 241 252 188 238 228 174 236 232 235 244 241 241 290 242 254 262 265 262 261 265 270 266 274
295 287 272 279 294 287 293 294 301 303 296 279 285 291 304 294 256 241 237 235 228 242 253 225 235 241 208 237 254 246 246 222 242 255 264 270 264 262 265 270 275 275 273 270
282 284 288 287 299 279 304 299 293 285 240 279 297 306 11 338 270 246 240 235 235 240 241 226 244 242 257 235 249 263 253 255 254 266 279 279 272 268 274 278 272 269 274 272
272 282 277 280 299 285 312 300 267 194 7 293 301 310 299 344 298 265 244 239 230 219 216 228 238 243 208 256 255 278 337 308 302 280 279 272 270 275 267 267 270 274 272 262
270 272 273 281 295 281 270 264 290 296 318 321 299 299 292 332 340 327 256 217 211 211 226 232 246 257 207 249 272 318 311 314 309 302 292 280 266 256 271 235 258 286 272 259
259 264 269 277 288 284 287 278 249 258 273 242 280 276 316 355 331 329 359 168 203 219 236 245 260 275 237 274 283 306 309 311 311 310 306 294 271 255 253 264 273 274 274 274
264 261 262 280 280 254 164 160 222 237 228 235 238 283 279 338 307 303 314 345 253 271 265 262 306 309 261 274 311 311 317 317 309 326 340 349 281 272 259 255 262 269 275 269
247 222 224 224 222 212 352 322 213 224 222 226 243 242 269 324 333 314 335 347 301 293 299 288 239 262 275 319 331 341 352 1 10 4 7 356 347 301 273 262 272 261 271 210
203 184 220 227 165 230 211 219 213 202 234 221 239 237 248 275 234 279 349 324 297 292 310 335 283 330 333 341 349 358 5 13 15 24 25 21 13 8 354 324 294 255 230 234
198 189 283 297 189 184 253 238 268 228 240 215 202 242 231 251 220 262 317 299 341 252 325 271 308 283 338 347 353 5 14 19 22 27 30 29 30 25 27 18 352 248 233 197
164 186 246 207 193 62 195 207 246 251 213 221 222 289 267 209 223 239 265 273 243 311 358 324 262 303 338 359 353 1 20 22 23 31 32 33 31 35 32 31 37 51 169 199
193 163 244 225 198 236 203 203 209 254 259 283 291 272 238 196 185 203 257 261 276 355 15 267 279 339 346 356 11 10 17 25 25 27 30 29 34 43 40 41 37 40 54 148
198 202 244 226 235 254 261 252 274 286 291 292 277 238 217 197 231 208 282 339 298 242 244 265 319 330 335 333 357 13 23 26 25 28 29 27 28 35 40 42 43 48 52 74
234 236 261 254 287 274 260 269 279 313 299 287 222 255 216 210 221 194 227 115 235 257 242 306 320 327 343 335 346 0 8 13 20 32 34 33 30 32 37 46 50 52 67 88
237 251 253 260 275 268 271 280 288 315 276 238 201 245 222 283 229 228 164 219 242 297 315 319 323 331 342 350 341 329 9 6 12 14 20 25 32 34 46 52 61 64 74 88